Retour au catalogue

CZ-6A R/B

ActifLEO
NORAD 67434·ROCKET BODY·🇨🇳 China

Lancé Jan 13, 2026 depuis Taiyuan Satellite Launch Center

Loading…

Prochains Passages (prochaines 24 heures)

TLE

FraisSource: Space-Track

Époque: Sep 14, 2026, 00:02 UTC

1 67434U 26006B   26257.00170195  .00000651  00000-0  46238-4 0  9992
2 67434 142.0455  88.3904 0200509  71.8358 290.4118 14.62656446 35655

Suivez CZ-6A R/B en temps réel avec AllMySat

Download on the App Store